sat.trackr.live / text

‹ back to catalog

STARLINK-37027

NORAD 68232 · 2026-054A

PAYLOAD ACTIVE UNKNOWN

§ Identity

Operator
Country
US
Launch date
2026-03-17
Launch site
AFETR
Launch vehicle
Mass (kg)
RCS (m²)

Purposes: comms

External: N2YO · Heavens-Above · Gunter

§ Orbital elements

Epoch: 2026-05-24T16:50:48.037632Z

Period
93.85 min
Inclination
53.1600°
Eccentricity
0.0000598
Mean motion
15.34411131 rev/d
Perigee alt
462.3 km
Apogee alt
463.1 km
Semi-major
6,840.8 km
B*
7.9966e-4
RAAN
297.0631°
Arg perigee
26.7375°
Mean anomaly
333.3658°
Rev number
1,072

§ Raw data

STARLINK-370271 68232U 26054A   26144.70194488  .00026748  00000+0  79966-3 0  99922 68232  53.1600 297.0631 0000598  26.7375 333.3658 15.34411131 10723

JSON: /api/v1/satellites/68232 · /tle

For live sub-satellite position, see the globe view (requires WebGL).

§ Visibility from observer

Set your observer location to see the next 7 days of passes ≥ 10°. The values pass through the URL so the page stays shareable.

No JS? Fill the form by hand. The geolocation button needs JavaScript.